User: anonymous   Login
Location: Unspecified
(0.0000°N, 0.0000°E)
Time: 01:55:04
(UTC+00:00)
Language:

STARLINK-4402 - Orbit

View from above orbital plane
View from above orbital plane
View from above satellite
View from above satellite

Ground track
Ground track

The orbit is defined by the following mean orbital elements,

1 53509U          26145.66668980 +.00000000 +00000-0 +33342-2 0 00009
2 53509  97.6029 267.7171 0001390  74.2857  21.2862 15.40290912    08
Epoch (UTC): 25 May 2026 16:00:01
Eccentricity: 0.0001390
inclination: 97.6029°
perigee height: 444 km
apogee height: 446 km
right ascension of ascending node: 267.7171°
argument of perigee: 74.2857°
revolutions per day: 15.40290912
mean anomaly at epoch: 21.2862°

The dashed part of the orbit path shows where the satellite is in the earth's shadow,  

DLR